Location: Seattle
(47.6064°N, 122.3308°W)
Time: 07:13:53
(UTC-08:00)

Explorer 7 - Visible Passes

Search period start: 24 November 2020 00:00
Search period end: 04 December 2020 00:00
Orbit: 484 x 678 km, 50.3° (Epoch: 24 November)

Date Brightness Start Highest point End Pass type
(mag) Time Alt. Az. Time Alt. Az. Time Alt. Az.
24 Nov 8.9 04:20:43 26° E 04:20:43 26° E 04:22:38 10° ENE visible
24 Nov 6.9 05:57:01 27° W 05:59:09 61° N 06:03:06 10° ENE visible
25 Nov 8.8 04:25:20 28° ENE 04:25:20 28° ENE 04:27:19 10° ENE visible
25 Nov 7.0 06:01:39 25° WNW 06:03:53 58° N 06:07:49 10° ENE visible
26 Nov 8.7 04:29:55 29° ENE 04:29:55 29° ENE 04:31:59 10° ENE visible
26 Nov 7.0 06:06:13 23° WNW 06:08:37 58° N 06:12:33 10° E visible
27 Nov 8.5 04:34:27 31° ENE 04:34:27 31° ENE 04:36:39 10° ENE visible
27 Nov 6.9 06:10:45 22° WNW 06:13:22 63° N 06:17:18 10° E visible
28 Nov 8.4 04:38:58 33° ENE 04:38:58 33° ENE 04:41:20 10° ENE visible
28 Nov 6.8 06:15:16 20° WNW 06:18:04 74° NNE 06:22:01 10° E visible
29 Nov 8.2 04:43:28 36° ENE 04:43:28 36° ENE 04:46:03 10° E visible
29 Nov 6.7 06:19:46 19° WNW 06:22:44 90° NW 06:26:42 10° ESE visible
30 Nov 8.0 04:47:59 40° ENE 04:47:59 40° ENE 04:50:47 10° E visible
30 Nov 6.9 06:24:17 17° WNW 06:27:21 69° SSW 06:31:17 10° ESE visible
01 Dec 7.8 04:52:30 46° ENE 04:52:30 46° ENE 04:55:31 10° E visible
01 Dec 7.2 06:28:48 16° WNW 06:31:55 49° SSW 06:35:44 10° SE visible
02 Dec 7.5 04:57:03 53° E 04:57:03 53° E 05:00:13 10° ESE visible
02 Dec 7.8 06:33:21 14° W 06:36:26 34° SW 06:40:01 10° SSE visible
03 Dec 7.4 05:01:38 56° ESE 05:01:38 56° ESE 05:04:51 10° ESE visible
03 Dec 8.3 06:37:57 12° W 06:40:51 23° SW 06:44:02 10° SSE visible
